Flag for Brazil Weather past 2 weeks in Salvador, Bahia, Brazil

Now
81 °F

Passing clouds.


Feels Like: 83 °F
Forecast: N/A
Wind: 14 mph from Southeast

Location: Salvador Aeroporto

Current Time: May 22, 2015 at 7:55:40 PM

Latest Report: May 22, 2015 at 7:00 PM


Visibility: N/A

Pressure: 30.07 "Hg

Humidity: 62%

Dew point: 66 °F

Location of SalvadorLocation

Historic Weather in Salvador — Graph

°F

Salvador temperature yesterday

Maximum temperature yesterday: 81 °F (at 8:00 AM)
Minimum temperature yesterday: 43 °F (at 11:00 AM)
Average temperature yesterday: 76 °F

Past Weeks' High & Low Weather Summary

 TemperatureHumidityPressure
High86 °F (May 8, 12:00 PM)100% (May 8, 11:00 PM)30.09 "Hg (May 8, 11:00 PM)
Low37 °F (May 15, 5:00 AM)58% (May 16, 3:00 PM)29.86 "Hg (May 12, 3:00 PM)
Average77 °F79%29.99 "Hg
* Reported May 7 7:00 PM — May 22 7:00 PM, Salvador, Weather by CustomWeather, © 2015

Note: Actual official high and low records may vary slightly from our data, if they occured in-between our weather recording intervals... More about our weather records

Advertising

Salvador weather history for previous 24 hours

 ConditionsComfort  
Time TempWeatherWind HumidityBarometerVisibility
7:00 PM
Fri, May 22
81 °FPassing clouds.14 mph62%30.07 "HgN/A
6:00 PM81 °FPassing clouds.12 mph66%30.07 "HgN/A
5:00 PM81 °FScattered clouds.15 mph66%30.04 "HgN/A
4:00 PM81 °FBroken clouds.14 mph66%30.04 "HgN/A
3:00 PM81 °FBroken clouds.13 mph66%30.04 "HgN/A
2:00 PM82 °FPartly sunny.17 mph62%30.04 "HgN/A
1:00 PM46 °FScattered showers. Broken clouds.15 mph100%30.07 "Hg5 mi
12:00 PM45 °FScattered showers. Broken clouds.12 mph100%30.09 "Hg4 mi
11:00 AM45 °FScattered showers. Partly sunny.13 mph100%30.09 "Hg5 mi
10:00 AM79 °FRain. Broken clouds.13 mphN/AN/A2 mi
9:00 AM79 °FScattered showers. Broken clouds.18 mph74%N/A5 mi
8:00 AM77 °FLight rain. Partly sunny.17 mph74%N/A5 mi
7:00 AM77 °FBroken clouds.17 mph79%30.07 "HgN/A
6:00 AM79 °FBroken clouds.15 mph79%30.07 "HgN/A
5:00 AM77 °FPassing clouds.12 mph79%30.04 "HgN/A
4:00 AM79 °FPassing clouds.17 mph74%30.04 "HgN/A
3:00 AM79 °FPassing clouds.13 mph70%30.04 "HgN/A
2:00 AM81 °FPassing clouds.13 mph70%30.04 "HgN/A
1:00 AM81 °FPassing clouds.18 mph70%30.07 "HgN/A
12:00 AM81 °FPassing clouds.10 mph70%30.07 "HgN/A
11:00 PM
Thu, May 21
79 °FPartly cloudy.15 mph74%30.09 "HgN/A
10:00 PM79 °FPartly cloudy.16 mph74%30.07 "HgN/A
9:00 PM81 °FPassing clouds.14 mph66%30.07 "HgN/A
8:00 PM81 °FPartly cloudy.13 mph66%30.07 "HgN/A
7:00 PM81 °FPassing clouds.18 mph66%30.07 "HgN/A
Weather by CustomWeather, © 2015

See weather overviewHow to use our weather pages